Regional Weather Roundup
Issued by NWS Midland/Odessa, TX

Home | Current Version | Previous Version | Text Only | Print | Product List | Glossary On
Versions: 1 2 3 4 5 6 7 8 9 10 11 12 13 14 15 16 17 18 19 20 21 22 23 24 25 26 27 28 29 30 31 32 33 34 35 36 37 38 39 40 41 42 43 44 45 46 47 48 49 50
000
ASUS44 KMAF 232210
RWRMAF
MIDLAND AREA WEATHER ROUNDUP
NATIONAL WEATHER SERVICE MIDLAND TX
500 PM CDT SUN APR 23 2017

...IN SOUTHWEST TEXAS AND SOUTHEAST NEW MEXICO...

CITY           SKY/WX    TMP DP  RH WIND       PRES   REMARKS
ALPINE         SUNNY     74  30  19 SE6       30.12F
ANDREWS        FAIR      69  35  29 SE8       30.07F
ARTESIA        SUNNY     73  36  25 S25       30.00F
BIG SPRING     SUNNY     70  32  24 CALM      30.09F
CARLSBAD       SUNNY     75  33  21 S15G29    30.00F
DRYDEN           N/A     74  36  25 VRB7      30.04F
FORT STOCKTON  MOSUNNY   75  33  21 SE9       30.04F
GUAD PASS      SUNNY     75  32  20 SW12G20     N/A
HOBBS          SUNNY     68  32  26 S13G21    30.07F
MARFA          SUNNY     73  30  20 VRB6      30.10F
MIDLAND AIRPK  SUNNY     72  32  23 SE5       30.07F
MIDLAND INTL   SUNNY     70  31  23 E3        30.06F
ODESSA         SUNNY     70  32  24 CALM      30.07F
PECOS          SUNNY     76  32  20 E8G18     30.02F
PRESIDIO       FAIR      83  41  22 CALM      30.00F
SEMINOLE       SUNNY     69  37  30 S9        30.08F
SNYDER         SUNNY    N/A N/A N/A CALM      30.08F
WINK           SUNNY     73  32  22 SE13G21   30.03F
$$
...OTHER STATIONS IN TEXAS...

CITY           SKY/WX    TMP DP  RH WIND       PRES   REMARKS
ABILENE        SUNNY     72  34  24 N9        30.06F
AMARILLO       SUNNY     71  35  26 S18G26    30.02F
AUSTIN         SUNNY     76  41  28 N12G22    30.02F
BROWNSVILLE    SUNNY     77  48  35 NE14      30.01F
CORPUS CHRISTI SUNNY     77  44  30 N15       30.01F
DALLAS FTW     MOSUNNY   74  39  28 N14       30.02F
DEL RIO        NOT AVBL
EL PASO        MOSUNNY   79  27  14 SE7G22    29.98F
HOUSTON INT    MOSUNNY   72  49  44 NW15      29.99F
LUBBOCK        MOSUNNY   71  33  24 S10G17    30.05F
SAN ANGELO     SUNNY     74  30  19 VRB5      30.06F
SAN ANTONIO    SUNNY     76  38  25 VRB5G18   30.03F
WACO           SUNNY     74  43  32 N13G18    30.04F
WICHITA FALLS  NOT AVBL
$$
...OTHER LOCATIONS IN NEW MEXICO...

CITY           SKY/WX    TMP DP  RH WIND       PRES   REMARKS
ALAMOGORDO     SUNNY     75  34  22 S17G24    30.01F
ALBUQUERQUE    MOSUNNY   75  30  19 S14G26    29.97F
CANNON AFB     SUNNY     73  35  24 S20G26    30.01F
CLOVIS         SUNNY     73  37  27 S20G29    30.02F
HOLLOMAN AFB   SUNNY     77  31  18 S12G23    30.03F
ROSWELL        SUNNY     75  34  22 S21G30    30.01F
RUIDOSO        SUNNY     72  27  18 SW25G31   30.10F
SANTA FE       SUNNY     71  30  21 W14       30.02F
TRUTH OR CONSE SUNNY     77  32  19 S21G28    29.98F
TUCUMCARI      SUNNY     77  35  21 SW20G31   29.94F
$$



USA.gov is the U.S. government's official web portal to all federal, state and local government web resources and services.